Location: Enborne
(51.3833°N, 1.3667°W)
Time: 18:59:42
(UTC+00:00)

Cosmos 1844 Rocket - Pass Details

Date: 25 January 2021
Orbit: 826 x 843 km, 71.0° (Epoch: 06 March)

Event Time Altitude Azimuth Distance (km) Brightness Sun altitude
Rises 20:11:33 0° 263° (W) 3,397 6.9 -32.2°
Reaches altitude 10° 20:14:42 10° 281° (W) 2,463 6.0 -32.6°
Maximum altitude 20:18:45 20° 327° (NNW) 1,871 4.9 -33.3°
Enters shadow 20:20:55 16° 355° (N) 2,060 4.8 -33.6°
